View from above orbital plane
|
View from above satellite
|
Ground track
|
The orbit data is extracted from the following two-line orbital elements,
1 00876U 64053A 21106.47044489 -.00000069 00000-0 12088-4 0 9998
2 00876 65.0587 133.3157 0155844 281.1924 77.1693 14.63791532 12222
Epoch (UTC): | 16 April 2021 11:17:26 |
Eccentricity: | 0.0155844 |
inclination: | 65.0587° |
perigee height: | 571 km |
apogee height: | 791 km |
right ascension of ascending node: | 133.3157° |
argument of perigee: | 281.1924° |
revolutions per day: | 14.63791532 |
mean anomaly at epoch: | 77.1693° |
orbit number at epoch: | 1222 |
The dashed part of the orbit path shows where the satellite is in the earth's shadow,
|
|